TimeEDT,TemperatureF,Dew PointF,Humidity,Sea Level PressureIn,VisibilityMPH,Wind Direction,Wind SpeedMPH,Gust SpeedMPH,PrecipitationIn,Events,Conditions,WindDirDegrees,DateUTC
12:15 AM,75.2,48.2,38,29.75,10.0,South,3.5,-,N/A,,Clear,180,2013-04-19 04:15:00
12:35 AM,75.2,50.0,41,29.74,10.0,SSE,5.8,-,N/A,,Clear,160,2013-04-19 04:35:00
12:55 AM,75.2,50.0,41,29.73,10.0,SSE,4.6,-,N/A,,Clear,150,2013-04-19 04:55:00
1:15 AM,75.2,50.0,41,29.72,10.0,SSE,8.1,-,N/A,,Clear,160,2013-04-19 05:15:00
1:35 AM,73.4,50.0,44,29.71,10.0,SSE,5.8,-,N/A,,Clear,160,2013-04-19 05:35:00
1:55 AM,73.4,50.0,44,29.71,10.0,South,4.6,-,N/A,,Clear,170,2013-04-19 05:55:00
2:15 AM,73.4,51.8,47,29.70,10.0,SSE,3.5,-,N/A,,Clear,160,2013-04-19 06:15:00
2:35 AM,73.4,51.8,47,29.69,10.0,South,3.5,-,N/A,,Clear,190,2013-04-19 06:35:00
2:55 AM,73.4,53.6,50,29.67,10.0,South,4.6,-,N/A,,Clear,190,2013-04-19 06:55:00
3:15 AM,73.4,53.6,50,29.66,10.0,SSE,4.6,-,N/A,,Clear,160,2013-04-19 07:15:00
3:35 AM,71.6,53.6,53,29.66,10.0,SSE,6.9,-,N/A,,Clear,150,2013-04-19 07:35:00
3:55 AM,73.4,53.6,50,29.64,10.0,SSE,6.9,-,N/A,,Clear,150,2013-04-19 07:55:00
4:15 AM,73.4,55.4,53,29.64,10.0,SSE,5.8,-,N/A,,Clear,160,2013-04-19 08:15:00
4:35 AM,73.4,55.4,53,29.63,10.0,SE,4.6,-,N/A,,Clear,130,2013-04-19 08:35:00
4:55 AM,73.4,55.4,53,29.62,10.0,SE,6.9,-,N/A,,Clear,140,2013-04-19 08:55:00
5:15 AM,73.4,55.4,53,29.61,10.0,SSE,4.6,-,N/A,,Clear,160,2013-04-19 09:15:00
5:35 AM,73.4,55.4,53,29.59,10.0,SSE,6.9,-,N/A,,Clear,150,2013-04-19 09:35:00
5:55 AM,73.4,55.4,53,29.59,10.0,SSE,5.8,-,N/A,,Clear,150,2013-04-19 09:55:00
6:15 AM,73.4,55.4,53,29.59,10.0,SSE,8.1,-,N/A,,Clear,160,2013-04-19 10:15:00
6:55 AM,73.4,55.4,53,29.57,10.0,SSE,5.8,-,N/A,,Scattered Clouds,150,2013-04-19 10:55:00
7:15 AM,73.4,55.4,53,29.58,10.0,South,6.9,-,N/A,,Scattered Clouds,170,2013-04-19 11:15:00
7:35 AM,71.6,57.2,60,29.57,10.0,South,5.8,-,N/A,Rain,Light Rain,180,2013-04-19 11:35:00
7:55 AM,71.6,57.2,60,29.57,10.0,South,8.1,-,N/A,Rain,Light Rain,190,2013-04-19 11:55:00
8:15 AM,73.4,55.4,53,29.57,10.0,South,5.8,-,N/A,,Scattered Clouds,190,2013-04-19 12:15:00
8:35 AM,71.6,57.2,60,29.57,10.0,SSW,8.1,-,N/A,,Mostly Cloudy,200,2013-04-19 12:35:00
8:55 AM,71.6,59.0,64,29.57,10.0,SSW,8.1,17.3,N/A,Rain,Light Rain,200,2013-04-19 12:55:00
9:15 AM,71.6,59.0,64,29.56,10.0,SSW,6.9,-,N/A,Rain,Light Rain,210,2013-04-19 13:15:00
9:35 AM,69.8,60.8,73,29.56,7.0,SSW,6.9,-,N/A,Rain,Light Rain,210,2013-04-19 13:35:00
9:55 AM,66.2,60.8,83,29.59,2.0,WSW,17.3,27.6,N/A,Rain,Rain,240,2013-04-19 13:55:00
10:15 AM,62.6,59.0,88,29.63,7.0,WSW,10.4,18.4,N/A,Rain,Rain,250,2013-04-19 14:15:00
10:35 AM,59.0,55.4,88,29.66,4.0,WSW,9.2,26.5,N/A,Rain,Rain,250,2013-04-19 14:35:00
10:55 AM,55.4,53.6,94,29.69,5.0,WNW,11.5,19.6,N/A,Rain,Light Rain,290,2013-04-19 14:55:00
11:15 AM,53.6,50.0,88,29.71,7.0,West,5.8,16.1,N/A,Rain,Rain,260,2013-04-19 15:15:00
11:35 AM,51.8,50.0,94,29.72,3.0,WSW,9.2,17.3,N/A,,Light Drizzle,250,2013-04-19 15:35:00
11:55 AM,51.8,50.0,94,29.72,2.5,WSW,11.5,19.6,N/A,Rain,Light Rain,240,2013-04-19 15:55:00
12:15 PM,51.8,48.2,88,29.74,3.0,West,9.2,-,N/A,Rain,Rain,260,2013-04-19 16:15:00
12:35 PM,50.0,46.4,87,29.75,4.0,West,6.9,18.4,N/A,Rain,Light Rain,260,2013-04-19 16:35:00
12:55 PM,51.8,46.4,82,29.75,10.0,West,11.5,-,N/A,,Overcast,260,2013-04-19 16:55:00
1:15 PM,50.0,46.4,87,29.77,10.0,West,8.1,-,N/A,,Overcast,280,2013-04-19 17:15:00
1:35 PM,50.0,46.4,87,29.77,10.0,WSW,12.7,18.4,N/A,,Overcast,250,2013-04-19 17:35:00
1:55 PM,51.8,44.6,76,29.78,10.0,WSW,16.1,24.2,N/A,,Overcast,240,2013-04-19 17:55:00
2:15 PM,51.8,42.8,71,29.80,10.0,West,6.9,23.0,N/A,,Overcast,260,2013-04-19 18:15:00
2:35 PM,51.8,41.0,67,29.81,10.0,West,12.7,27.6,N/A,,Overcast,260,2013-04-19 18:35:00
2:55 PM,51.8,39.2,62,29.82,10.0,WSW,23.0,29.9,N/A,,Scattered Clouds,240,2013-04-19 18:55:00
3:15 PM,51.8,39.2,62,29.82,10.0,WSW,15.0,21.9,N/A,,Mostly Cloudy,240,2013-04-19 19:15:00
3:35 PM,51.8,39.2,62,29.82,10.0,SW,13.8,24.2,N/A,,Mostly Cloudy,230,2013-04-19 19:35:00
3:55 PM,51.8,39.2,62,29.81,10.0,WSW,18.4,27.6,N/A,,Overcast,240,2013-04-19 19:55:00
4:15 PM,51.8,35.6,54,29.82,10.0,WSW,19.6,26.5,N/A,,Overcast,240,2013-04-19 20:15:00
4:35 PM,51.8,37.4,58,29.84,10.0,WSW,12.7,24.2,N/A,,Mostly Cloudy,240,2013-04-19 20:35:00
4:55 PM,51.8,35.6,54,29.84,10.0,WSW,12.7,25.3,N/A,,Mostly Cloudy,250,2013-04-19 20:55:00
5:15 PM,51.8,35.6,54,29.84,10.0,WSW,18.4,23.0,N/A,,Mostly Cloudy,240,2013-04-19 21:15:00
5:35 PM,51.8,35.6,54,29.85,10.0,WSW,11.5,-,N/A,,Mostly Cloudy,250,2013-04-19 21:35:00
5:55 PM,53.6,35.6,51,29.86,10.0,SW,13.8,20.7,N/A,,Mostly Cloudy,230,2013-04-19 21:55:00
6:15 PM,51.8,33.8,50,29.87,10.0,WSW,15.0,19.6,N/A,,Scattered Clouds,240,2013-04-19 22:15:00
6:35 PM,51.8,33.8,50,29.87,10.0,WSW,17.3,21.9,N/A,,Mostly Cloudy,240,2013-04-19 22:35:00
6:55 PM,50.0,33.8,54,29.87,10.0,WSW,15.0,-,N/A,,Mostly Cloudy,240,2013-04-19 22:55:00
7:15 PM,50.0,32.0,50,29.89,10.0,WSW,8.1,19.6,N/A,,Overcast,250,2013-04-19 23:15:00
7:35 PM,50.0,33.8,54,29.89,10.0,WSW,6.9,17.3,N/A,,Overcast,250,2013-04-19 23:35:00
7:55 PM,50.0,33.8,54,29.90,10.0,WSW,11.5,16.1,N/A,,Overcast,250,2013-04-19 23:55:00
8:15 PM,50.0,32.0,50,29.91,10.0,WSW,10.4,18.4,N/A,,Overcast,240,2013-04-20 00:15:00
8:35 PM,48.2,32.0,54,29.92,10.0,WSW,11.5,17.3,N/A,,Overcast,240,2013-04-20 00:35:00
8:55 PM,48.2,33.8,58,29.93,10.0,WSW,10.4,-,N/A,,Overcast,240,2013-04-20 00:55:00
9:15 PM,48.2,32.0,54,29.94,10.0,WSW,6.9,-,N/A,,Overcast,250,2013-04-20 01:15:00
9:35 PM,48.2,32.0,54,29.95,10.0,WSW,10.4,18.4,N/A,,Overcast,240,2013-04-20 01:35:00
9:55 PM,46.4,32.0,57,29.96,10.0,WSW,16.1,21.9,N/A,,Overcast,240,2013-04-20 01:55:00
10:15 PM,46.4,32.0,57,29.97,10.0,WSW,12.7,17.3,N/A,,Overcast,240,2013-04-20 02:15:00
10:35 PM,46.4,32.0,57,29.98,10.0,WSW,9.2,16.1,N/A,,Overcast,250,2013-04-20 02:35:00
10:55 PM,46.4,32.0,57,29.99,10.0,WSW,11.5,19.6,N/A,,Overcast,240,2013-04-20 02:55:00
11:15 PM,46.4,32.0,57,29.99,10.0,WSW,6.9,-,N/A,,Overcast,250,2013-04-20 03:15:00
11:35 PM,46.4,30.2,53,30.00,10.0,West,5.8,16.1,N/A,,Overcast,280,2013-04-20 03:35:00
11:55 PM,44.6,32.0,61,30.02,10.0,WSW,10.4,17.3,N/A,Rain,Light Rain,250,2013-04-20 03:55:00